Other Public Products
Issued by NWS Grand Forks, ND

Home | Current Version | Previous Version | Graphics & Text | Print | Product List | Glossary On
Versions: 1 2 3 4 5 6 7 8 9 10 11 12 13 14 15 16 17 18 19 20 21 22 23 24 25 26 27 28 29 30 31 32 33 34 35 36 37 38 39 40 41 42 43 44 45 46 47 48 49 50
505
FPUS83 KFGF 220931
OPUFGF
PRAIRIE TO PINES WEATHER ROUNDUP
NATIONAL WEATHER SERVICE EASTERN NORTH DAKOTA/GRAND FORKS ND
300 AM CST THU FEB 22 2018

 **SATELLITE DATA USED TO AUGMENT SKY COVER AT AUTOMATED STATIONS**
 *****  WEATHER ACROSS EASTERN NORTH DAKOTA  *****

CITY           SKY/WX    TMP DP  RH WIND       PRES   REMARKS
GRAND FORKS    FAIR      -4  -8  83 SE8       30.49F WCI -19
GRND FORKS AFB CLEAR     -4  -9  80 S6        30.47F WCI -16
GRND FORKS NWS   N/A     -3  -6  86 S2        30.47F
BUXTON           N/A     -5  -5  99 E5          N/A  WCI -15
DEVILS LAKE    FAIR      -7 -10  87 SE8       30.38F WCI -23
FARGO          FAIR       4  -3  73 SE12      30.50F WCI -12
WAHPETON ARPT  FAIR       1  -4  78 SE10      30.50F WCI -14
$$

 *****  WEATHER ACROSS CENTRAL AND WESTERN NORTH DAKOTA  *****

CITY           SKY/WX    TMP DP  RH WIND       PRES   REMARKS
JAMESTOWN      FAIR      -1  -6  79 S7        30.37F WCI -14
BISMARCK       FAIR      -7 -11  83 E6        30.34F WCI -20
MINOT          FAIR      -2  -8  76 SE10      30.27F WCI -19
MINOT AFB      FAIR      -6 -12  78 SE7       30.26F WCI -21
GARRISON         N/A     -8 -12  83 SE3       30.29F
WILLISTON      FAIR      -5 -11  75 SW3       30.24S
DICKINSON      FAIR      -5 -13  68 SW7       30.17F WCI -19
HETTINGER      FAIR     -19 -22  86 CALM      30.21F
$$

 *****  OTHER OBSERVATIONS NORTHEAST NORTH DAKOTA  *****

CITY           SKY/WX    TMP DP  RH WIND       PRES   REMARKS
WALHALLA       FAIR      -4  -6  92 SE6       30.43F WCI -16
LANGDON        FAIR      -2  -6  84 S14       30.36F WCI -21
CAVALIER         N/A     -4  -8  84 CALM      30.45F
GRAFTON        FAIR      -6  -9  84 SE10      30.50F WCI -23
CANDO          FAIR     -11 -15  84 SE7       30.38F WCI -26
FORT TOTTEN    NOT AVBL
ROLLA          FAIR      -4  -9  77 SW15      30.31F WCI -25
RUGBY          FAIR      -6 -11  77 SE8       30.33F WCI -21
 ***** THE ABOVE OBSERVATIONS ARE NON NWS ARE NOT QUALITY
        CONTROLLED AND MAY MIS-REPORT RAIN FOR SNOW...
$$

 *****  OTHER OBSERVATIONS SOUTHEAST NORTH DAKOTA *****

CITY           SKY/WX    TMP DP  RH WIND       PRES   REMARKS
COOPERSTOWN    FAIR      -4  -8  84 SE8       30.40F WCI -19
VALLEY CITY    FAIR       1  -4  78 S7        30.41F WCI -11
OAKES            N/A     -2  -8  78 SE9       30.42F WCI -18
GWINNER          N/A     -8 -11  84 NE6       30.44F WCI -21
SHEYENNE NWR     N/A     -9 -15  75 SE3       29.95S
BUFFALO          N/A      2  -5  71 W13         N/A  WCI -15
WYNDMERE       NOT AVBL
 ***** THE ABOVE OBSERVATIONS ARE NON NWS ARE NOT QUALITY
       CONTROLLED AND MAY MIS-REPORT RAIN FOR SNOW...
$$

  *****  WEATHER ACROSS NORTHERN MINNESOTA  *****

CITY           SKY/WX    TMP DP  RH WIND       PRES   REMARKS
FLAG ISLAND    FAIR      -8 -11  84 SE6       30.49F WCI -21
WARROAD        FAIR      -4  -8  84 CALM      30.50F
ROSEAU         FAIR      -8 -13  77 CALM      30.49F
HALLOCK        FAIR      -2  -8  78 SE13      30.48S WCI -21
THF RVR FALLS  FAIR      -4  -8  83 SE7       30.50F WCI -18
HALSTAD        NOT AVBL
FOSSTON        FAIR       0  -6  78 SE5       30.49F WCI -10
BAUDETTE       FAIR      -9 -12  87 E5        30.50F WCI -20
WASKISH        FAIR      -4  -8  84 S5        30.50F WCI -15
CROOKSTON      FAIR      -6 -11  77 S9        30.51F WCI -22
$$
  *****  WEATHER ACROSS CENTRAL AND WEST MINNESOTA  *****

CITY           SKY/WX    TMP DP  RH WIND       PRES   REMARKS
BEMIDJI        FAIR      -8 -12  84 CALM      30.50F
PARK RAPIDS    FAIR      -8 -14  74 E3        30.50F
WADENA         FAIR      -9 -15  77 CALM      30.51F
DETROIT LAKES  FAIR       1  -2  85 SE5       30.50F WCI  -8
MOORHEAD       FAIR       0  -8  71 SE7       30.51F WCI -13
FERGUS FALLS   FAIR       5  -2  72 SE8       30.53F WCI  -8
ELBOW LAKE     FAIR       3  -2  79 E7        30.52F WCI -10
MORRIS MN      FAIR       0  -6  78 SE6       30.52F WCI -12
STAPLES        FAIR      -9 -15  77 CALM      30.53F
WHEATON        FAIR      -6  -9  84 SE12      30.53F WCI -24
$$
  *****  WEATHER ELSEWHERE ACROSS MINNESOTA  *****

CITY           SKY/WX    TMP DP  RH WIND       PRES   REMARKS
DULUTH         FAIR      -1  -8  72 CALM      30.55F
INTRNTL FALLS  FAIR     -15 -17  91 CALM      30.54F
ELY            FAIR      -9 -11  92 CALM      30.54F
CLOQUET        FAIR      -6 -11  77 CALM      30.56F
BRAINERD       FAIR      -8 -13  78 CALM      30.55F
HIBBING        FAIR     -19 -22  86 NW3       30.54F
ALEXANDRIA     FAIR       1  -3  83 SE5       30.52F WCI  -9
SAINT CLOUD    FAIR      -7 -10  87 CALM      30.58F
MINNEAPOLIS    MOCLDY     8   5  87 CALM      30.60F
$$

  *****  WEATHER ACROSS SOUTH DAKOTA  *****

CITY           SKY/WX    TMP DP  RH WIND       PRES   REMARKS
SIOUX FALLS    CLOUDY    12   7  80 E6        30.48F WCI   3
BROOKINGS      FAIR       5   1  83 SE8       30.46F WCI  -8
WATERTOWN      FAIR       6   1  80 SE12      30.43F WCI  -9
HURON          FAIR       6   2  83 SE7       30.44F WCI  -6
SISSETON         N/A      3  -2  79 S7        30.48F WCI  -9
ABERDEEN       FAIR       9   3  77 S10       30.42F WCI  -5
MITCHELL       FAIR       8   3  80 SE9       30.46F WCI  -5
PIERRE         FAIR       6   3  87 SE9       30.33S WCI  -8
MOBRIDGE       FAIR      -4  -7  87 SE3       30.28F
RAPID CITY     FAIR       4  -3  73 E6        30.14F WCI  -7
$$

  *****  SOME WEATHER IN NEARBY STATES *****

CITY           SKY/WX    TMP DP  RH WIND       PRES   REMARKS
GLASGOW MT     FAIR     -11 -16  78 SE8       30.16S WCI -28
GREAT FALLS MT FAIR       4  -4  69 N5        30.03R WCI  -5
CHEYENNE WY    FAIR       8   5  87 CALM      30.00F
SCOTTSBLUFF NE CLOUDY     9   4  80 E10       30.15F WCI  -5
OMAHA NE       CLOUDY    23  18  81 NE5       30.50F WCI  17
DES MOINES IA  CLOUDY    25  16  68 E6        30.52S WCI  18
DAVENPORT IA   FAIR      27  18  69 NE12      30.53F WCI  17
CHICAGO IL     CLOUDY    31  23  72 NE13      30.54F WCI  21
EAU CLAIRE WI  FAIR       2  -1  88 NE5       30.60F WCI  -8
LA CROSSE WI   CLOUDY    19  15  84 CALM      30.61F
$$

  *****  SOME NATIONAL WEATHER *****

CITY           SKY/WX    TMP DP  RH WIND       PRES   REMARKS
LA GUARDIA NY  CLOUDY    51  36  56 N10       30.50R
RALEIGH NC     MOCLDY    63  63 100 SW8       30.42F
ATLANTA GA     MOCLDY    65  63  93 SE5       30.38S
NEW ORLEANS LA FAIR      73  72  96 SE7       30.24F
OKLAHOMA CITY  CLOUDY    27  26  96 N9        30.31F WCI  18
ALBUQUERQUE NM CLOUDY    33  24  69 N5        30.01F
SALT LAKE CITY FAIR      20  12  71 SE3       30.04F
LOS ANGELES CA FAIR      49  32  52 NE5       30.18R
BOISE ID       LGT SNOW  28  26  92 E5        29.97F FOG     WCI  23
SEATTLE WA     MOCLDY    30  28  92 NE6       30.17R WCI  24
$$

*** WEATHER ACROSS MANITOBA...SASKATCHEWAN AND ONTARIO ***
                ***ONTARIO***

CITY           SKY/WX    TMP DP  RH WIND       PRES   REMARKS
GERALDTON      CLEAR     -9 -13  84 CALM      30.51S
THUNDER BAY    CLEAR     -9 -15  77 W3        30.62S
SIOUX LOOKOUT  CLEAR     -4  -8  84 SW5       30.49R WCI -15
TORONTO        CLOUDY    27  19  74 N10       30.64F WCI  17
BIG TROUT LK   CLEAR    -13 -18  77 SW7       30.37S WCI -29
PICKLE LAKE    NOT AVBL
DRYDEN         CLEAR     -4  -8  84 SW7       30.48S WCI -18
KENORA         CLEAR     -4  -9  77 S9        30.47S WCI -20
$$
                *** MANITOBA***

CITY           SKY/WX    TMP DP  RH WIND       PRES   REMARKS
BRANDON        CLEAR    -11 -15  84 NE6       30.32F WCI -25
DAUPHIN        CLEAR      5  -2  72 SW8       30.29S WCI  -8
ISLAND LAKE    CLEAR    -13 -20  70 S6        30.28F WCI -27
PILOT MOUND      N/A     -4  -8  84 S10         N/A  WCI -21
THE PAS        CLEAR    -11 -18  70 S9        30.10F WCI -29
THOMPSON       PTCLDY   -13 -20  70 S5        30.04F WCI -25
WINNIPEG       CLEAR      0  -6  78 S9        30.45F WCI -16
LYNN LAKE      MOCLDY    -4  -9  77 SW15G23   29.79F WCI -25
CHURCHILL      FLURRIES -11 -18  70 S15G21    29.93F WCI -34
GILLAM         CLEAR     -9 -20  59 SW14G21   30.09F WCI -31
$$
                ***SASKATCHEWAN***

CITY           SKY/WX    TMP DP  RH WIND       PRES   REMARKS
ESTEVAN        PTCLDY   -15 -20  76 VRB2      30.22S
KINDERSLEY     CLEAR    -13 -18  77 S9        30.06S WCI -31
LLOYDMINSTER   CLEAR      0  -6  78 W14       30.00R WCI -19
PRINCE ALBERT  CLEAR     -4  -8  84 SW6       30.11F WCI -16
REGINA         CLEAR    -15 -18  84 SE9       30.17F WCI -33
YORKTON        CLEAR     -6  -9  84 S12       30.18F WC



USA.gov is the U.S. government's official web portal to all federal, state and local government web resources and services.